| time (UTC) | temp F | wind direction | speed MPH | gust MPH | rain 1hr in | rain 24hr in | rain mn in | humidity % | barometer mb |
| 20260502170248 | 58 | 306 | 6.0 | 14.0 | 0.00 | 0.00 | 0.00 | 47 | 1021.5 |
| 20260502164248 | 58 | 16 | 5.0 | 16.0 | 0.00 | 0.00 | 0.00 | 50 | 1021.6 |
| 20260502163748 | 58 | 21 | 5.0 | 16.0 | 0.00 | 0.00 | 0.00 | 48 | 1021.5 |
| 20260502162748 | 58 | 323 | 3.0 | 6.0 | 0.00 | 0.00 | 0.00 | 48 | 1021.8 |
| 20260502161747 | 57 | 62 | 4.0 | 11.0 | 0.00 | 0.00 | 0.00 | 47 | 1021.6 |
| 20260502160747 | 57 | 3 | 8.0 | 14.0 | 0.00 | 0.00 | 0.00 | 51 | 1021.5 |
| 20260502160248 | 57 | 0 | 7.0 | 12.0 | 0.00 | 0.00 | 0.00 | 51 | 1021.6 |
| 20260502151746 | 55 | 350 | 5.0 | 11.0 | 0.00 | 0.00 | 0.00 | 52 | 1021.6 |
| 20260502151246 | 55 | 305 | 4.0 | 11.0 | 0.00 | 0.00 | 0.00 | 55 | 1021.6 |
| 20260502150747 | 55 | 348 | 8.0 | 11.0 | 0.00 | 0.00 | 0.00 | 55 | 1021.5 |
| 20260502150246 | 55 | 353 | 6.0 | 11.0 | 0.00 | 0.00 | 0.00 | 58 | 1021.5 |
| 20260502130743 | 45 | 345 | 4.0 | 6.0 | 0.00 | 0.00 | 0.00 | 74 | 1021.2 |
| 20260502123742 | 41 | 353 | 3.0 | 6.0 | 0.00 | 0.00 | 0.00 | 81 | 1020.9 |
| 20260502123243 | 40 | 329 | 2.0 | 4.0 | 0.00 | 0.00 | 0.00 | 83 | 1020.9 |
| 20260502122742 | 39 | 326 | 2.0 | 4.0 | 0.00 | 0.00 | 0.00 | 84 | 1020.9 |
| 20260502122242 | 39 | 314 | 2.0 | 3.0 | 0.00 | 0.00 | 0.00 | 85 | 1020.7 |
| 20260502121743 | 38 | 323 | 2.0 | 3.0 | 0.00 | 0.00 | 0.00 | 85 | 1020.7 |
| 20260502121242 | 38 | 323 | 2.0 | 3.0 | 0.00 | 0.00 | 0.00 | 85 | 1020.6 |
| 20260502120241 | 37 | 323 | 2.0 | 4.0 | 0.00 | 0.00 | 0.00 | 86 | 1020.4 |
| 20260502115742 | 37 | 323 | 2.0 | 4.0 | 0.00 | 0.00 | 0.00 | 86 | 1020.3 |
| 20260502115241 | 37 | 323 | 2.0 | 4.0 | 0.00 | 0.00 | 0.00 | 86 | 1020.3 |
| 20260502114741 | 37 | 323 | 1.0 | 4.0 | 0.00 | 0.00 | 0.00 | 86 | 1020.1 |
| 20260502113741 | 37 | 316 | 2.0 | 3.0 | 0.00 | 0.00 | 0.00 | 85 | 1020.1 |
| 20260502113241 | 37 | 320 | 2.0 | 4.0 | 0.00 | 0.00 | 0.00 | 85 | 1020.1 |
| 20260502112741 | 37 | 323 | 2.0 | 4.0 | 0.00 | 0.00 | 0.00 | 84 | 1020.0 |
| 20260502112240 | 37 | 348 | 1.0 | 4.0 | 0.00 | 0.00 | 0.00 | 83 | 1020.0 |
| 20260502111741 | 37 | 348 | 2.0 | 4.0 | 0.00 | 0.00 | 0.00 | 83 | 1020.0 |
| 20260502111240 | 37 | 343 | 2.0 | 4.0 | 0.00 | 0.00 | 0.00 | 83 | 1019.9 |
| 20260502110741 | 37 | 334 | 2.0 | 4.0 | 0.00 | 0.00 | 0.00 | 84 | 1019.9 |
| 20260502110240 | 37 | 334 | 2.0 | 4.0 | 0.00 | 0.00 | 0.00 | 85 | 1019.9 |
| 20260502105240 | 37 | 334 | 1.0 | 3.0 | 0.00 | 0.00 | 0.00 | 84 | 1019.9 |
| 20260502104740 | 37 | 334 | 2.0 | 3.0 | 0.00 | 0.00 | 0.00 | 84 | 1019.8 |
| 20260502104239 | 38 | 334 | 2.0 | 3.0 | 0.00 | 0.00 | 0.00 | 83 | 1019.8 |
| 20260502103739 | 38 | 334 | 2.0 | 3.0 | 0.00 | 0.00 | 0.00 | 82 | 1019.7 |
| 20260502103239 | 38 | 334 | 2.0 | 3.0 | 0.00 | 0.00 | 0.00 | 82 | 1019.7 |
| 20260502101739 | 38 | 334 | 1.0 | 3.0 | 0.00 | 0.00 | 0.00 | 82 | 1019.7 |
| 20260502101239 | 38 | 334 | 2.0 | 3.0 | 0.00 | 0.00 | 0.00 | 82 | 1019.7 |
| 20260502100740 | 38 | 334 | 2.0 | 3.0 | 0.00 | 0.00 | 0.00 | 81 | 1019.7 |
| 20260502090737 | 40 | 330 | 2.0 | 4.0 | 0.00 | 0.00 | 0.00 | 80 | 1019.3 |
| 20260502071236 | 40 | 321 | 3.0 | 5.0 | 0.00 | 0.00 | 0.00 | 84 | 1019.2 |
| 20260502070734 | 40 | 319 | 2.0 | 5.0 | 0.00 | 0.00 | 0.00 | 84 | 1019.2 |
| 20260502070236 | 40 | 319 | 3.0 | 5.0 | 0.00 | 0.00 | 0.00 | 85 | 1019.2 |
| 20260502065734 | 40 | 337 | 3.0 | 4.0 | 0.00 | 0.00 | 0.00 | 86 | 1019.2 |
| 20260502064734 | 40 | 337 | 3.0 | 4.0 | 0.00 | 0.00 | 0.00 | 85 | 1019.2 |
| 20260502064235 | 40 | 337 | 3.0 | 4.0 | 0.00 | 0.00 | 0.00 | 83 | 1019.2 |
| 20260502063735 | 40 | 337 | 2.0 | 3.0 | 0.00 | 0.00 | 0.00 | 83 | 1019.2 |
| 20260502063234 | 40 | 337 | 2.0 | 3.0 | 0.00 | 0.00 | 0.00 | 83 | 1019.2 |
| 20260502062734 | 41 | 337 | 2.0 | 3.0 | 0.00 | 0.00 | 0.00 | 82 | 1019.2 |
| 20260502062232 | 41 | 337 | 1.0 | 3.0 | 0.00 | 0.00 | 0.00 | 81 | 1019.3 |
| 20260502061734 | 41 | 337 | 2.0 | 2.0 | 0.00 | 0.00 | 0.00 | 81 | 1019.4 |
| 20260502061233 | 41 | 337 | 1.0 | 2.0 | 0.00 | 0.00 | 0.00 | 82 | 1019.3 |
| 20260502060234 | 42 | 337 | 1.0 | 2.0 | 0.00 | 0.00 | 0.00 | 81 | 1019.3 |
| 20260502055733 | 42 | 337 | 0.0 | 2.0 | 0.00 | 0.00 | 0.00 | 81 | 1019.5 |
| 20260502054732 | 42 | 337 | 2.0 | 3.0 | 0.00 | 0.00 | 0.00 | 81 | 1019.4 |
| 20260502054232 | 43 | 337 | 2.0 | 4.0 | 0.00 | 0.00 | 0.00 | 80 | 1019.4 |
| 20260502053233 | 44 | 337 | 1.0 | 2.0 | 0.00 | 0.00 | 0.00 | 80 | 1019.4 |
| 20260502052732 | 44 | 337 | 0.0 | 2.0 | 0.00 | 0.00 | 0.00 | 80 | 1019.2 |
| 20260502052232 | 44 | 337 | 1.0 | 3.0 | 0.00 | 0.00 | 0.00 | 80 | 1019.2 |
| 20260502051732 | 44 | 337 | 1.0 | 4.0 | 0.00 | 0.00 | 0.00 | 80 | 1019.2 |
| 20260502051231 | 44 | 337 | 2.0 | 4.0 | 0.00 | 0.00 | 0.00 | 81 | 1019.1 |
| 20260502050231 | 44 | 337 | 2.0 | 4.0 | 0.00 | 0.00 | 0.00 | 81 | 1019.1 |
| 20260502045731 | 45 | 337 | 2.0 | 4.0 | 0.00 | 0.00 | 0.00 | 81 | 1019.0 |
| 20260502045231 | 45 | 343 | 2.0 | 4.0 | 0.00 | 0.00 | 0.00 | 82 | 1018.9 |
| 20260502044730 | 45 | 343 | 2.0 | 4.0 | 0.00 | 0.00 | 0.00 | 81 | 1019.0 |
| 20260502044230 | 45 | 345 | 3.0 | 4.0 | 0.00 | 0.00 | 0.00 | 81 | 1018.9 |
| 20260502043731 | 46 | 334 | 2.0 | 3.0 | 0.00 | 0.00 | 0.00 | 81 | 1018.8 |
| 20260502043231 | 46 | 334 | 2.0 | 3.0 | 0.00 | 0.00 | 0.00 | 81 | 1018.8 |
| 20260502042731 | 46 | 334 | 2.0 | 4.0 | 0.00 | 0.00 | 0.00 | 81 | 1018.8 |
| 20260502042231 | 46 | 334 | 2.0 | 4.0 | 0.00 | 0.00 | 0.00 | 81 | 1018.8 |
| 20260502041730 | 46 | 334 | 3.0 | 3.0 | 0.00 | 0.00 | 0.00 | 82 | 1018.7 |
| 20260502041230 | 46 | 334 | 2.0 | 3.0 | 0.00 | 0.00 | 0.00 | 81 | 1018.8 |
| 20260502040730 | 46 | 343 | 1.0 | 5.0 | 0.00 | 0.00 | 0.00 | 80 | 1018.7 |
| 20260502040231 | 46 | 344 | 3.0 | 5.0 | 0.00 | 0.00 | 0.00 | 79 | 1018.7 |
| 20260502035730 | 46 | 345 | 3.0 | 5.0 | 0.00 | 0.00 | 0.00 | 79 | 1018.7 |
| 20260502035230 | 46 | 347 | 4.0 | 5.0 | 0.00 | 0.00 | 0.00 | 80 | 1018.7 |
| 20260502034730 | 46 | 347 | 3.0 | 4.0 | 0.00 | 0.00 | 0.00 | 82 | 1018.7 |
| 20260502034230 | 47 | 331 | 2.0 | 3.0 | 0.00 | 0.00 | 0.00 | 82 | 1018.6 |
| 20260502033730 | 47 | 331 | 2.0 | 3.0 | 0.00 | 0.00 | 0.00 | 81 | 1018.7 |
| 20260502033229 | 47 | 331 | 1.0 | 2.0 | 0.00 | 0.00 | 0.00 | 81 | 1018.6 |
| 20260502032230 | 48 | 331 | 1.0 | 3.0 | 0.00 | 0.00 | 0.00 | 78 | 1018.5 |
| 20260502031729 | 48 | 331 | 0.0 | 1.0 | 0.00 | 0.00 | 0.00 | 78 | 1018.4 |
| 20260502030729 | 49 | 331 | 0.0 | 2.0 | 0.00 | 0.00 | 0.00 | 78 | 1018.3 |
| 20260502030229 | 49 | 331 | 1.0 | 3.0 | 0.00 | 0.00 | 0.00 | 78 | 1018.2 |
| 20260502025729 | 49 | 331 | 2.0 | 3.0 | 0.00 | 0.00 | 0.00 | 78 | 1018.2 |
| 20260502025227 | 49 | 331 | 2.0 | 3.0 | 0.00 | 0.00 | 0.00 | 76 | 1018.1 |
| 20260502024228 | 50 | 331 | 2.0 | 3.0 | 0.00 | 0.00 | 0.00 | 71 | 1017.8 |
| 20260502023729 | 51 | 348 | 2.0 | 3.0 | 0.00 | 0.00 | 0.00 | 69 | 1017.7 |
| 20260502023228 | 51 | 343 | 1.0 | 3.0 | 0.00 | 0.00 | 0.00 | 69 | 1017.5 |
| 20260502022728 | 51 | 343 | 2.0 | 3.0 | 0.00 | 0.00 | 0.00 | 69 | 1017.4 |
| 20260502022229 | 51 | 343 | 2.0 | 3.0 | 0.00 | 0.00 | 0.00 | 68 | 1017.4 |
| 20260502021728 | 52 | 6 | 2.0 | 3.0 | 0.00 | 0.00 | 0.00 | 69 | 1017.3 |
| 20260502021227 | 52 | 6 | 1.0 | 4.0 | 0.00 | 0.00 | 0.00 | 69 | 1017.3 |
| 20260502020727 | 52 | 6 | 1.0 | 4.0 | 0.00 | 0.00 | 0.00 | 68 | 1017.1 |
| 20260502015727 | 53 | 358 | 0.0 | 2.0 | 0.00 | 0.00 | 0.00 | 70 | 1017.1 |
| 20260502015227 | 53 | 358 | 1.0 | 3.0 | 0.00 | 0.00 | 0.00 | 70 | 1017.0 |
| 20260502014727 | 54 | 358 | 0.0 | 3.0 | 0.00 | 0.00 | 0.00 | 68 | 1016.9 |
| 20260502014227 | 55 | 358 | 0.0 | 3.0 | 0.00 | 0.00 | 0.00 | 67 | 1016.8 |
| 20260502013727 | 55 | 358 | 0.0 | 3.0 | 0.00 | 0.00 | 0.00 | 68 | 1016.8 |
| 20260502012726 | 56 | 358 | 0.0 | 1.0 | 0.00 | 0.00 | 0.00 | 66 | 1016.6 |
| 20260502012227 | 56 | 358 | 0.0 | 0.0 | 0.00 | 0.00 | 0.00 | 66 | 1016.5 |
| 20260502011726 | 57 | 358 | 0.0 | 0.0 | 0.00 | 0.00 | 0.00 | 64 | 1016.5 |
| 20260502011226 | 58 | 358 | 0.0 | 1.0 | 0.00 | 0.00 | 0.00 | 62 | 1016.4 |
| 20260502010726 | 58 | 358 | 0.0 | 3.0 | 0.00 | 0.00 | 0.00 | 60 | 1016.3 |
| 20260502010226 | 59 | 358 | 1.0 | 3.0 | 0.00 | 0.00 | 0.00 | 56 | 1016.2 |
| 20260502005726 | 60 | 358 | 0.0 | 2.0 | 0.00 | 0.00 | 0.00 | 54 | 1016.2 |
| 20260502005226 | 60 | 358 | 0.0 | 2.0 | 0.00 | 0.00 | 0.00 | 51 | 1016.2 |
| 20260502004726 | 61 | 358 | 2.0 | 3.0 | 0.00 | 0.00 | 0.00 | 50 | 1016.1 |
| 20260502004225 | 61 | 358 | 2.0 | 3.0 | 0.00 | 0.00 | 0.00 | 51 | 1016.0 |
| 20260502003725 | 61 | 358 | 1.0 | 3.0 | 0.00 | 0.00 | 0.00 | 50 | 1016.0 |
| 20260502002725 | 62 | 358 | 2.0 | 5.0 | 0.00 | 0.00 | 0.00 | 46 | 1015.9 |
| 20260502002225 | 62 | 353 | 3.0 | 6.0 | 0.00 | 0.00 | 0.00 | 45 | 1015.8 |
| 20260502001225 | 63 | 0 | 3.0 | 5.0 | 0.00 | 0.00 | 0.00 | 44 | 1015.8 |
| 20260502000724 | 63 | 303 | 2.0 | 5.0 | 0.00 | 0.00 | 0.00 | 44 | 1015.8 |
| 20260501235725 | 63 | 355 | 1.0 | 5.0 | 0.00 | 0.00 | 0.00 | 43 | 1015.7 |
| 20260501234724 | 63 | 310 | 3.0 | 10.0 | 0.00 | 0.00 | 0.00 | 41 | 1015.7 |
| 20260501234224 | 64 | 329 | 6.0 | 10.0 | 0.00 | 0.00 | 0.00 | 39 | 1015.7 |
| 20260501233724 | 64 | 265 | 3.0 | 9.0 | 0.00 | 0.00 | 0.00 | 40 | 1015.7 |
| 20260501233224 | 64 | 338 | 4.0 | 9.0 | 0.00 | 0.00 | 0.00 | 40 | 1015.7 |
| 20260501232724 | 64 | 271 | 3.0 | 7.0 | 0.00 | 0.00 | 0.00 | 42 | 1015.7 |
| 20260501232223 | 64 | 285 | 4.0 | 12.0 | 0.00 | 0.00 | 0.00 | 41 | 1015.8 |
| 20260501231722 | 65 | 345 | 4.0 | 12.0 | 0.00 | 0.00 | 0.00 | 39 | 1015.7 |
| 20260501231223 | 65 | 334 | 6.0 | 14.0 | 0.00 | 0.00 | 0.00 | 39 | 1015.7 |
| 20260501230724 | 64 | 243 | 6.0 | 16.0 | 0.00 | 0.00 | 0.00 | 38 | 1015.8 |
| 20260501225723 | 64 | 305 | 5.0 | 12.0 | 0.00 | 0.00 | 0.00 | 42 | 1015.7 |
| 20260501225224 | 63 | 278 | 4.0 | 10.0 | 0.00 | 0.00 | 0.00 | 43 | 1015.7 |
| 20260501224723 | 63 | 312 | 5.0 | 11.0 | 0.00 | 0.00 | 0.00 | 42 | 1015.8 |
| 20260501224223 | 63 | 348 | 6.0 | 12.0 | 0.00 | 0.00 | 0.00 | 40 | 1015.7 |
| 20260501223721 | 63 | 312 | 4.0 | 14.0 | 0.00 | 0.00 | 0.00 | 39 | 1015.7 |
| 20260501223223 | 64 | 344 | 8.0 | 14.0 | 0.00 | 0.00 | 0.00 | 39 | 1015.7 |
| 20260501222722 | 64 | 340 | 6.0 | 12.0 | 0.00 | 0.00 | 0.00 | 41 | 1015.7 |
| 20260501222223 | 63 | 329 | 7.0 | 13.0 | 0.00 | 0.00 | 0.00 | 40 | 1015.9 |
| 20260501221722 | 64 | 314 | 8.0 | 14.0 | 0.00 | 0.00 | 0.00 | 39 | 1015.9 |
| 20260501220722 | 64 | 357 | 6.0 | 16.0 | 0.00 | 0.00 | 0.00 | 41 | 1015.7 |
| 20260501220222 | 64 | 326 | 7.0 | 16.0 | 0.00 | 0.00 | 0.00 | 37 | 1015.7 |
| 20260501215221 | 65 | 327 | 6.0 | 13.0 | 0.00 | 0.00 | 0.00 | 42 | 1015.8 |
| 20260501214722 | 65 | 351 | 8.0 | 17.0 | 0.00 | 0.00 | 0.00 | 39 | 1015.9 |
| 20260501214221 | 66 | 331 | 11.0 | 17.0 | 0.00 | 0.00 | 0.00 | 37 | 1015.9 |
| 20260501213221 | 65 | 314 | 5.0 | 15.0 | 0.00 | 0.00 | 0.00 | 38 | 1016.0 |
| 20260501212721 | 66 | 302 | 8.0 | 15.0 | 0.00 | 0.00 | 0.00 | 39 | 1016.0 |
| 20260501212221 | 66 | 0 | 5.0 | 14.0 | 0.00 | 0.00 | 0.00 | 41 | 1016.2 |
| 20260501211721 | 65 | 300 | 9.0 | 15.0 | 0.00 | 0.00 | 0.00 | 41 | 1016.2 |
| 20260501211221 | 65 | 319 | 10.0 | 15.0 | 0.00 | 0.00 | 0.00 | 40 | 1016.3 |
| 20260501210721 | 65 | 319 | 7.0 | 11.0 | 0.00 | 0.00 | 0.00 | 42 | 1016.4 |
| 20260501210221 | 65 | 283 | 3.0 | 10.0 | 0.00 | 0.00 | 0.00 | 46 | 1016.5 |
| 20260501205720 | 64 | 290 | 6.0 | 10.0 | 0.00 | 0.00 | 0.00 | 44 | 1016.6 |
| 20260501205220 | 64 | 338 | 5.0 | 13.0 | 0.00 | 0.00 | 0.00 | 44 | 1016.6 |
| 20260501204720 | 64 | 347 | 6.0 | 15.0 | 0.00 | 0.00 | 0.00 | 41 | 1016.8 |
| 20260501204220 | 64 | 353 | 8.0 | 15.0 | 0.00 | 0.00 | 0.00 | 40 | 1016.9 |
| 20260501203220 | 64 | 319 | 7.0 | 11.0 | 0.00 | 0.00 | 0.00 | 43 | 1016.9 |
| 20260501202720 | 64 | 338 | 6.0 | 10.0 | 0.00 | 0.00 | 0.00 | 39 | 1017.1 |
| 20260501202220 | 64 | 333 | 6.0 | 12.0 | 0.00 | 0.00 | 0.00 | 43 | 1017.2 |
| 20260501201719 | 64 | 353 | 5.0 | 13.0 | 0.00 | 0.00 | 0.00 | 42 | 1017.1 |
| 20260501200719 | 64 | 0 | 6.0 | 12.0 | 0.00 | 0.00 | 0.00 | 38 | 1017.3 |
| 20260501200219 | 63 | 310 | 5.0 | 10.0 | 0.00 | 0.00 | 0.00 | 38 | 1017.3 |
| 20260501195719 | 63 | 333 | 3.0 | 11.0 | 0.00 | 0.00 | 0.00 | 39 | 1017.4 |
| 20260501194718 | 64 | 0 | 4.0 | 13.0 | 0.00 | 0.00 | 0.00 | 38 | 1017.5 |
| 20260501193719 | 66 | 276 | 4.0 | 12.0 | 0.00 | 0.00 | 0.00 | 40 | 1017.6 |
| 20260501193218 | 65 | 289 | 6.0 | 12.0 | 0.00 | 0.00 | 0.00 | 36 | 1017.5 |
| 20260501192719 | 65 | 241 | 4.0 | 18.0 | 0.00 | 0.00 | 0.00 | 41 | 1017.6 |
| 20260501192218 | 65 | 271 | 4.0 | 18.0 | 0.00 | 0.00 | 0.00 | 42 | 1017.7 |
| 20260501191719 | 64 | 254 | 2.0 | 9.0 | 0.00 | 0.00 | 0.00 | 40 | 1017.7 |
| 20260501191218 | 63 | 319 | 6.0 | 10.0 | 0.00 | 0.00 | 0.00 | 37 | 1017.6 |
| 20260501190717 | 64 | 357 | 7.0 | 10.0 | 0.00 | 0.00 | 0.00 | 41 | 1017.6 |
| 20260501190218 | 64 | 279 | 3.0 | 13.0 | 0.00 | 0.00 | 0.00 | 40 | 1017.8 |
| 20260501185717 | 63 | 317 | 7.0 | 13.0 | 0.00 | 0.00 | 0.00 | 43 | 1017.9 |
| 20260501185218 | 63 | 309 | 4.0 | 13.0 | 0.00 | 0.00 | 0.00 | 40 | 1017.8 |
| 20260501184717 | 63 | 337 | 5.0 | 13.0 | 0.00 | 0.00 | 0.00 | 42 | 1017.7 |
| 20260501184217 | 63 | 0 | 9.0 | 13.0 | 0.00 | 0.00 | 0.00 | 43 | 1017.7 |
| 20260501183717 | 63 | 337 | 7.0 | 10.0 | 0.00 | 0.00 | 0.00 | 42 | 1017.8 |
| 20260501182717 | 63 | 313 | 5.0 | 10.0 | 0.00 | 0.00 | 0.00 | 39 | 1017.9 |
| 20260501182218 | 63 | 281 | 6.0 | 14.0 | 0.00 | 0.00 | 0.00 | 43 | 1018.1 |
| 20260501181717 | 64 | 307 | 6.0 | 14.0 | 0.00 | 0.00 | 0.00 | 42 | 1018.1 |
| 20260501180217 | 64 | 264 | 7.0 | 12.0 | 0.00 | 0.00 | 0.00 | 45 | 1018.4 |
| 20260501175716 | 64 | 180 | 2.0 | 10.0 | 0.00 | 0.00 | 0.00 | 42 | 1018.3 |
| 20260501175216 | 64 | 323 | 6.0 | 11.0 | 0.00 | 0.00 | 0.00 | 42 | 1018.5 |
| 20260501174715 | 63 | 241 | 5.0 | 11.0 | 0.00 | 0.00 | 0.00 | 44 | 1018.5 |
| 20260501174216 | 63 | 302 | 4.0 | 12.0 | 0.00 | 0.00 | 0.00 | 45 | 1018.4 |
| 20260501173715 | 63 | 275 | 4.0 | 14.0 | 0.00 | 0.00 | 0.00 | 39 | 1018.5 |
| 20260501173216 | 63 | 276 | 6.0 | 14.0 | 0.00 | 0.00 | 0.00 | 45 | 1018.5 |
| 20260501172715 | 63 | 275 | 6.0 | 11.0 | 0.00 | 0.00 | 0.00 | 46 | 1018.6 |
| 20260501172215 | 63 | 289 | 5.0 | 11.0 | 0.00 | 0.00 | 0.00 | 44 | 1018.6 |
| 20260501171715 | 63 | 334 | 3.0 | 11.0 | 0.00 | 0.00 | 0.00 | 42 | 1018.7 |
| 20260501171215 | 62 | 279 | 2.0 | 12.0 | 0.00 | 0.00 | 0.00 | 41 | 1018.7 |